Location: Boston
(42.3580°N, 71.0600°W)
Time: 05:30:24
(UTC-05:00)

N. Korean satellite - Pass Details

Date: 10 October 2017
Orbit: 461 x 513 km, 97.2° (Epoch: 11 December)

Event Time Altitude Azimuth Distance (km) Brightness Sun altitude
Rises 19:24:40 0° 192° (SSW) 2,565 10.3 -14.6°
Reaches altitude 10° 19:26:59 10° 205° (SSW) 1,678 9.5 -15.0°
Maximum altitude 19:30:04 27° 264° (W) 976 8.9 -15.6°
Drops below altitude 10° 19:33:08 10° 323° (NW) 1,664 9.9 -16.2°
Sets 19:35:26 0° 336° (NNW) 2,539 10.6 -16.6°
